• In Deutschland
  • Länderverzeichnis
  • Für 7 Tage
  • Wassertemperatur
  • Satellitenkarten
  • Wetterkarte
  • Widgets
  • user-avatar
    Anmelden

    Stündliche Wetter Bururi

    Heute, 21 Mai, Montag

    Zeit Temperatur Niederschläge Wind Luftdruck Luftfeuchtigkeit
    00:00 +16°C° 0 mm 1 m/S 616 mmHg 86%
    01:00 +15°C° 0 mm 1 m/S 616 mmHg 86%
    02:00 +15°C° 0 mm 1 m/S 616 mmHg 86%
    03:00 +15°C° 0 mm 1 m/S 616 mmHg 86%
    04:00 +15°C° 0 mm 1 m/S 616 mmHg 86%
    05:00 +15°C° 0 mm 1 m/S 616 mmHg 85%
    06:00 +16°C° 0 mm 1 m/S 617 mmHg 81%
    07:00 +19°C° 0 mm 1 m/S 617 mmHg 77%
    08:00 +20°C° 0 mm 1 m/S 618 mmHg 72%
    09:00 +21°C° 0 mm 1 m/S 618 mmHg 69%
    10:00 +22°C° 0 mm 1 m/S 619 mmHg 65%
    11:00 +23°C° 0 mm 2 m/S 619 mmHg 62%
    12:00 +23°C° 0,1 mm 2 m/S 618 mmHg 61%
    13:00 +23°C° 0,1 mm 2 m/S 618 mmHg 61%
    14:00 +24°C° 0,1 mm 3 m/S 617 mmHg 61%
    15:00 +23°C° 0,2 mm 2 m/S 617 mmHg 65%
    16:00 +21°C° 0,2 mm 2 m/S 616 mmHg 69%
    17:00 +21°C° 0,2 mm 2 m/S 616 mmHg 73%
    18:00 +19°C° 0,4 mm 2 m/S 616 mmHg 78%
    19:00 +19°C° 0,4 mm 1 m/S 616 mmHg 83%
    20:00 +16°C° 0,4 mm 1 m/S 616 mmHg 88%
    21:00 +16°C° 0,2 mm 1 m/S 616 mmHg 88%
    22:00 +16°C° 0,2 mm 1 m/S 617 mmHg 88%
    23:00 +16°C° 0,2 mm 1 m/S 617 mmHg 88%

    Morgen, 22 Mai, Dienstag

    Zeit Temperatur Niederschläge Wind Luftdruck Luftfeuchtigkeit
    00:00 +16°C° 0,2 mm 1 m/S 617 mmHg 88%
    01:00 +16°C° 0,2 mm 1 m/S 617 mmHg 88%
    02:00 +16°C° 0,2 mm 1 m/S 616 mmHg 88%
    03:00 +16°C° 0,2 mm 1 m/S 616 mmHg 87%
    04:00 +15°C° 0,2 mm 1 m/S 616 mmHg 87%
    05:00 +15°C° 0,2 mm 2 m/S 616 mmHg 86%
    06:00 +16°C° 0 mm 2 m/S 617 mmHg 82%
    07:00 +18°C° 0 mm 2 m/S 618 mmHg 77%
    08:00 +19°C° 0 mm 2 m/S 619 mmHg 73%
    09:00 +20°C° 0 mm 2 m/S 619 mmHg 68%
    10:00 +21°C° 0 mm 2 m/S 619 mmHg 64%
    11:00 +23°C° 0 mm 2 m/S 620 mmHg 59%
    12:00 +24°C° 0,1 mm 2 m/S 619 mmHg 59%
    13:00 +24°C° 0,1 mm 2 m/S 619 mmHg 59%
    14:00 +24°C° 0,1 mm 2 m/S 618 mmHg 59%
    15:00 +23°C° 0,3 mm 2 m/S 618 mmHg 64%
    16:00 +21°C° 0,3 mm 2 m/S 617 mmHg 68%
    17:00 +22°C° 0,3 mm 1 m/S 617 mmHg 73%
    18:00 +20°C° 0,7 mm 1 m/S 617 mmHg 78%
    19:00 +19°C° 0,7 mm 1 m/S 617 mmHg 83%
    20:00 +16°C° 0,7 mm 1 m/S 617 mmHg 87%
    21:00 +16°C° 0,3 mm 1 m/S 618 mmHg 87%
    22:00 +16°C° 0,3 mm 1 m/S 618 mmHg 87%
    23:00 +16°C° 0,3 mm 1 m/S 618 mmHg 87%

    übermorgen, 23 Mai, Mittwoch

    Zeit Temperatur Niederschläge Wind Luftdruck Luftfeuchtigkeit
    00:00 +16°C° 0,2 mm 1 m/S 618 mmHg 87%
    01:00 +16°C° 0,2 mm 2 m/S 617 mmHg 86%
    02:00 +16°C° 0,2 mm 2 m/S 617 mmHg 86%
    03:00 +16°C° 0,1 mm 2 m/S 617 mmHg 85%
    04:00 +16°C° 0,1 mm 2 m/S 617 mmHg 84%
    05:00 +16°C° 0,1 mm 2 m/S 617 mmHg 83%
    06:00 +17°C° 0,1 mm 2 m/S 618 mmHg 80%
    07:00 +17°C° 0,1 mm 2 m/S 619 mmHg 77%
    08:00 +18°C° 0,1 mm 2 m/S 619 mmHg 74%
    09:00 +20°C° 0,1 mm 2 m/S 620 mmHg 70%
    10:00 +21°C° 0,1 mm 2 m/S 620 mmHg 66%
    11:00 +23°C° 0,1 mm 2 m/S 620 mmHg 62%
    12:00 +23°C° 0,1 mm 2 m/S 620 mmHg 62%
    13:00 +23°C° 0,1 mm 2 m/S 619 mmHg 62%
    14:00 +22°C° 0,1 mm 3 m/S 618 mmHg 62%
    15:00 +21°C° 0,2 mm 2 m/S 618 mmHg 66%
    16:00 +21°C° 0,2 mm 2 m/S 618 mmHg 70%
    17:00 +20°C° 0,2 mm 2 m/S 617 mmHg 74%
    18:00 +19°C° 0,2 mm 2 m/S 618 mmHg 78%
    19:00 +18°C° 0,2 mm 1 m/S 618 mmHg 82%
    20:00 +16°C° 0,2 mm 1 m/S 618 mmHg 87%
    21:00 +16°C° 0,2 mm 1 m/S 618 mmHg 87%
    22:00 +16°C° 0,2 mm 1 m/S 618 mmHg 87%
    23:00 +16°C° 0,2 mm 1 m/S 619 mmHg 87%

    24 Mai, Donnerstag

    Zeit Temperatur Niederschläge Wind Luftdruck Luftfeuchtigkeit
    00:00 +16°C° 0,1 mm 1 m/S 618 mmHg 86%
    01:00 +16°C° 0,1 mm 1 m/S 618 mmHg 85%
    02:00 +16°C° 0,1 mm 1 m/S 617 mmHg 84%
    03:00 +15°C° 0 mm 1 m/S 617 mmHg 84%
    04:00 +15°C° 0 mm 1 m/S 617 mmHg 84%
    05:00 +15°C° 0 mm 1 m/S 617 mmHg 83%
    06:00 +16°C° 0 mm 1 m/S 618 mmHg 80%
    07:00 +19°C° 0 mm 1 m/S 619 mmHg 76%
    08:00 +19°C° 0 mm 2 m/S 620 mmHg 72%
    09:00 +20°C° 0,1 mm 2 m/S 620 mmHg 69%
    10:00 +20°C° 0,1 mm 2 m/S 620 mmHg 67%
    11:00 +21°C° 0,1 mm 2 m/S 620 mmHg 64%
    12:00 +23°C° 0,1 mm 2 m/S 619 mmHg 63%
    13:00 +22°C° 0,1 mm 3 m/S 618 mmHg 62%
    14:00 +22°C° 0,1 mm 3 m/S 618 mmHg 61%
    15:00 +23°C° 0,1 mm 2 m/S 618 mmHg 64%
    16:00 +21°C° 0,1 mm 2 m/S 617 mmHg 68%
    17:00 +20°C° 0,1 mm 2 m/S 617 mmHg 72%
    18:00 +19°C° 0,1 mm 2 m/S 617 mmHg 77%
    19:00 +19°C° 0,1 mm 1 m/S 617 mmHg 82%
    20:00 +16°C° 0,1 mm 1 m/S 618 mmHg 86%
    21:00 +16°C° 0 mm 1 m/S 618 mmHg 86%
    22:00 +16°C° 0 mm 1 m/S 618 mmHg 85%
    23:00 +16°C° 0 mm 1 m/S 618 mmHg 84%

    25 Mai, Freitag

    Zeit Temperatur Niederschläge Wind Luftdruck Luftfeuchtigkeit
    00:00 +16°C° 0 mm 1 m/S 617 mmHg 84%
    01:00 +16°C° 0 mm 1 m/S 617 mmHg 83%
    02:00 +15°C° 0 mm 1 m/S 616 mmHg 82%
    03:00 +15°C° 0 mm 1 m/S 616 mmHg 82%
    04:00 +15°C° 0 mm 1 m/S 616 mmHg 82%
    05:00 +15°C° 0 mm 1 m/S 616 mmHg 83%
    06:00 +16°C° 0 mm 1 m/S 617 mmHg 78%
    07:00 +18°C° 0 mm 1 m/S 618 mmHg 74%
    08:00 +20°C° 0 mm 1 m/S 619 mmHg 70%
    09:00 +20°C° 0 mm 2 m/S 619 mmHg 67%
    10:00 +21°C° 0 mm 2 m/S 619 mmHg 63%
    11:00 +23°C° 0 mm 2 m/S 619 mmHg 60%
    12:00 +23°C° 0 mm 2 m/S 619 mmHg 59%
    13:00 +24°C° 0 mm 2 m/S 618 mmHg 58%
    14:00 +24°C° 0 mm 2 m/S 617 mmHg 57%
    15:00 +23°C° 0,1 mm 2 m/S 617 mmHg 60%
    16:00 +23°C° 0,1 mm 2 m/S 617 mmHg 64%
    17:00 +21°C° 0,1 mm 2 m/S 617 mmHg 68%
    18:00 +20°C° 0 mm 2 m/S 617 mmHg 72%
    19:00 +19°C° 0 mm 1 m/S 617 mmHg 76%
    20:00 +16°C° 0 mm 1 m/S 617 mmHg 81%
    21:00 +16°C° 0 mm 1 m/S 617 mmHg 80%
    22:00 +16°C° 0 mm 1 m/S 617 mmHg 79%
    23:00 +16°C° 0 mm 1 m/S 617 mmHg 78%

    26 Mai, Samstag

    Zeit Temperatur Niederschläge Wind Luftdruck Luftfeuchtigkeit
    00:00 +16°C° 0 mm 2 m/S 616 mmHg 76%
    01:00 +16°C° 0 mm 2 m/S 616 mmHg 75%
    02:00 +15°C° 0 mm 2 m/S 616 mmHg 74%
    03:00 +15°C° 0 mm 2 m/S 616 mmHg 74%
    04:00 +15°C° 0 mm 1 m/S 616 mmHg 74%
    05:00 +15°C° 0 mm 1 m/S 616 mmHg 75%
    06:00 +16°C° 0 mm 1 m/S 617 mmHg 72%
    07:00 +18°C° 0 mm 1 m/S 618 mmHg 70%
    08:00 +20°C° 0 mm 1 m/S 619 mmHg 67%
    09:00 +21°C° 0 mm 1 m/S 619 mmHg 63%
    10:00 +23°C° 0 mm 2 m/S 619 mmHg 60%
    11:00 +24°C° 0 mm 2 m/S 619 mmHg 56%
    12:00 +24°C° 0 mm 2 m/S 619 mmHg 56%
    13:00 +24°C° 0 mm 2 m/S 618 mmHg 56%
    14:00 +24°C° 0 mm 2 m/S 617 mmHg 56%
    15:00 +24°C° 0,1 mm 2 m/S 617 mmHg 59%
    16:00 +23°C° 0,1 mm 2 m/S 617 mmHg 63%
    17:00 +21°C° 0,1 mm 2 m/S 617 mmHg 67%
    18:00 +20°C° 0,3 mm 2 m/S 617 mmHg 72%
    19:00 +19°C° 0,3 mm 1 m/S 617 mmHg 77%
    20:00 +18°C° 0,3 mm 1 m/S 617 mmHg 82%
    21:00 +18°C° 0,2 mm 1 m/S 617 mmHg 81%
    22:00 +16°C° 0,2 mm 1 m/S 617 mmHg 81%
    23:00 +16°C° 0,2 mm 1 m/S 617 mmHg 80%
    Mehr zeigen